Terminal Aerodrome Forecast
Issued by NWS

Home | Current Version | Previous Version | Text Only | Print | Product List | Glossary On
Versions: 1 2 3 4 5 6 7 8 9 10 11 12 13
000
FTUS45 KRIW 191700
TAFWRL
TAF
KWRL 191720Z 1918/2018 VRB05KT P6SM SCT250
     FM191900 13007KT P6SM SKC
     FM200400 VRB04KT P6SM SKC
     FM201700 35011KT P6SM SCT080 BKN150=

USA.gov is the U.S. government's official web portal to all federal, state and local government web resources and services.